Location: Aragnouet
(42.7874°N, 0.2165°E)
Time: 22:26:03
(UTC+00:00)

NOSS 3-4 (C) - Pass Details

Date: 09 April 2020
Orbit: 894 x 1319 km, 63.4° (Epoch: 01 June)

Event Time Altitude Azimuth Distance (km) Brightness Sun altitude
Rises 19:25:31 0° 324° (NW) 3,838 7.7 -9.7°
Reaches altitude 10° 19:28:03 10° 325° (NW) 2,939 6.9 -10.2°
Maximum altitude 19:35:08 81° 54° (NE) 1,191 3.9 -11.4°
Enters shadow 19:42:39 11° 141° (SE) 3,125 5.6 -12.6°
